PEGASUS DEB, 24213

Orbit data source: Space-Track

PEGASUS DEB, 24213 is space debris in LEO originally from a launch on Thu, 19 May 1994 UTC launched from the Air Force Western Test Range (AFWTR). Debris objects in space refer to the collection of defunct objects orbiting the Earth. Examples of debris include non-operational satellites, rocket bodies, and fragments generated from explosions, collisions, or faulty payload assembly.

Loading next visibility...
Identifier
24213, 1994-029KL
Orbit
LEO
Country
Flag of USUS
Related business
Manufacturer
Unknown
Mission
Spacecraft
Bus & Motor
Unknown
Mass
Unknown
Launch date (UTC)
1994-05-19 (32 years ago)
Launch vehicle
Unknown
Launch site
Air Force Western Test Range (AFWTR)
Object type
Payload
Rocket body
Debris
Shape & HBR
Unknown shape, 0.1 m
Radar Cross Section
Medium (>0.1 m² and <1 m²)

Expand to show TLE details & history
Last TLE update: 1 day ago

TLE from 1 day ago
0 PEGASUS DEB
1 24213U 94029KL  26207.14994820  .00002208  00000-0  49925-3 0  9994
2 24213  81.4615 109.0908 0510015 311.6123  44.2383 13.98004779167540
Epoch: 2026-07-26T03:35Z
TLE epoch observation values (Epoch: 2026-07-26T03:35:55.524Z)
Latitude
-0.00004°
Longitude
111.25743°
Altitude
647.341 km
Speed
7.666 km/s
True Right ascension
07h 16m 21s
True Declination
0° 00' 00"
Sunlit
Object was in daylight at epoch
Visualization orbit readout
Latitude
Unknown
Longitude
Unknown
Altitude
Unknown
Speed
Unknown
Apparent Right ascension
Unknown
Apparent Declination
Unknown
Sunlit
N/A
Visualization observer readout
Local Sidereal Time
20:30:23
Azimuth
Unknown
Elevation
Unknown
Doppler factor
Unknown
Orbital elements
Apogee altitude
1,268.969 km
Perigee altitude
526.794 km
Semi-major axis
7,276.018 km
Eccentricity
0.051
Inclination
81.4615°
RAAN
109.0908°
Arg. of periapsis
311.6123°
True anomaly
48.50634°
Mean anomaly
44.2383°
Eccentric anomaly
46.35279°
Mean motion
3.49706 °/min
Orbital period
102.94 mins
BSTAR
0.00049925
Loading maneuver chart data...
Computing Atmospheric mass density...
Loading historical data...
Loading historical data...
Loading historical data...
Loading historical data...
Loading historical data...
Loading historical data...
Loading historical data...

Documentation

Showing up to 5 results
|